Location: Newark
(25.0000°N, 73.5000°E)
Time: 19:09:55
(UTC+00:00)

Courier 1B Rocket - Visible Passes

Search period start: 29 July 2021 00:00
Search period end: 08 August 2021 00:00
Orbit: 920 x 1202 km, 28.2° (Epoch: 28 July)

Date Brightness Start Highest point End Pass type
(mag) Time Alt. Az. Time Alt. Az. Time Alt. Az.
29 Jul 4.9 22:01:21 80° N 22:01:21 80° N 22:07:35 10° ENE visible
29 Jul 5.2 23:48:42 10° W 23:55:00 66° N 00:01:12 10° E visible
30 Jul 6.6 21:04:00 27° ENE 21:04:00 27° ENE 21:06:36 10° ENE visible
30 Jul 5.1 22:50:21 28° WNW 22:53:52 66° N 23:00:05 10° E visible
31 Jul 5.1 21:53:01 69° NNE 21:53:01 69° NNE 21:59:02 10° ENE visible
31 Jul 5.1 23:40:05 10° WNW 23:46:28 71° N 23:52:42 10° E visible
01 Aug 6.8 20:55:44 24° ENE 20:55:44 24° ENE 20:58:02 10° ENE visible
01 Aug 5.2 22:42:06 31° WNW 22:45:20 66° N 22:51:35 10° E visible
02 Aug 5.3 21:44:52 62° NNE 21:44:52 62° NNE 21:50:30 10° E visible
02 Aug 5.0 23:31:25 10° WNW 23:37:54 82° NNE 23:44:10 10° E visible
03 Aug 7.0 20:47:43 20° ENE 20:47:43 20° ENE 20:49:28 10° ENE visible
03 Aug 5.1 22:34:06 37° WNW 22:36:48 72° N 22:43:06 10° E visible
04 Aug 7.3 15:49:23 10° SSW 15:49:47 11° SSW 15:49:47 11° SSW visible
04 Aug 5.6 21:37:03 53° ENE 21:37:03 53° ENE 21:42:01 10° E visible
04 Aug 4.9 23:23:26 13° WNW 23:29:17 81° SSW 23:35:33 10° ESE visible
05 Aug 6.9 14:50:08 10° S 14:53:29 13° SSE 14:53:29 13° SSE visible
05 Aug 7.5 16:39:48 10° SW 16:39:56 11° SW 16:39:56 11° SW visible
05 Aug 7.3 20:40:05 14° E 20:40:05 14° E 20:40:57 10° E visible
05 Aug 4.9 22:26:29 53° WNW 22:28:13 84° NNE 22:34:35 10° ESE visible
06 Aug 6.4 15:39:09 10° SSW 15:43:39 26° S 15:43:39 26° S visible
06 Aug 6.1 21:29:40 39° E 21:29:40 39° E 21:33:33 10° E visible
06 Aug 5.0 23:16:05 21° W 23:20:35 61° SSW 23:26:47 10° ESE visible
07 Aug 6.5 14:38:59 10° SSW 14:44:33 21° SSE 14:47:21 17° ESE visible
07 Aug 6.6 16:30:26 10° SW 16:33:47 27° SW 16:33:47 27° SW visible
07 Aug 4.8 22:19:24 79° SW 22:19:33 80° SSW 22:25:59 10° ESE visible
